カタログに戻る

SATCOM 3 DEB

LostHEO
NORAD 32983·DEBRIS·🇺🇸 United States

打ち上げ Dec 7, 1979 から Cape Canaveral Space Force Station

Loading…

次のパス (今後24時間)

TLE

古いSource: Space-Track

元期: May 14, 2011, 08:08 UTC

1 32983U 79101J   11134.33946822 -.00000157 +00000-0 +10000-3 0  9998
2 32983 009.4068 265.9615 4798259 142.7681 262.6095 01.82309304021149

AllMySatでSATCOM 3 DEBをリアルタイム追跡

Download on the App Store